Simultaneous Nadir Overpasses (SNOs) Predictions

Prediction of SNOs near equator between NOAA-19 and NPP Satellite Orbit:

Table of predicted SNOs near equator for the next 14.0 days since TLE Epoch: 12/22/2012
Index Date (NOAA-19) Time (NOAA-19) NOAA-19 Lat,Lon Date (NPP) Time (NPP) NPP Lat,Lon Distance(km) Time Diff (sec)
1 12/23/2012 10:20:27 29.98, 43.43 12/23/2012 10:13:15 29.76, 42.46 97.25 432
2 12/23/2012 11:11:25 -29.96,-149.31 12/23/2012 11:03:56 -29.75,-150.21 90.55 449
3 12/23/2012 12:02:32 29.99, 17.91 12/23/2012 11:54:46 29.82, 17.06 83.55 466
4 12/23/2012 12:53:30 -29.96,-174.83 12/23/2012 12:45:27 -29.81,-175.61 76.85 483
5 12/23/2012 13:44:37 29.99, -7.61 12/23/2012 13:36:16 29.83, -8.31 69.90 501
6 12/23/2012 14:35:35 -29.97, 159.65 12/23/2012 14:26:57 -29.82, 159.02 63.22 518
7 12/23/2012 15:26:41 29.94, -33.12 12/23/2012 15:17:46 29.84, -33.69 56.27 535
8 12/23/2012 16:17:40 -29.98, 134.13 12/23/2012 16:08:28 -29.89, 133.63 49.53 552
9 12/23/2012 17:08:46 29.95, -58.64 12/23/2012 16:59:16 29.84, -59.07 42.63 570
10 12/23/2012 17:59:45 -29.99, 108.61 12/23/2012 17:49:58 -29.89, 108.25 35.94 587
11 12/23/2012 18:49:19 24.62, -82.72 12/23/2012 18:39:19 24.76, -83.09 40.10 600
12 01/04/2013 19:13:24 -29.98, 90.24 01/04/2013 19:05:57 -29.81, 89.27 95.00 447
13 01/04/2013 20:04:33 29.96,-102.54 01/04/2013 19:56:45 29.77,-103.42 86.91 468
14 01/04/2013 20:55:29 -29.99, 64.72 01/04/2013 20:47:27 -29.82, 63.90 81.29 482
15 01/04/2013 21:46:38 29.97,-128.07 01/04/2013 21:38:16 29.84,-128.81
